Theta_e
311 312 313 313 312 313 314 314 314 314 313 313 312 311 309 307 307 308 309 309 310 310 310 312 313 312 312 311 309 309 307 307 308 308 308 308 308 306 303 302 302 301 300 300 299 299 299
313 313 314 314 314 315 315 315 315 315 315 315 314 313 312 309 308 309 310 311 310 310 309 310 311 313 312 308 309 309 306 306 309 309 308 307 306 306 303 301 301 300 300 299 299 299 299
314 314 314 315 315 315 315 316 316 315 316 316 316 315 315 311 309 311 311 311 311 311 310 310 311 312 313 310 310 310 306 307 307 309 309 308 306 306 303 301 301 301 303 300 299 299 300
313 314 314 314 314 314 314 314 315 316 316 317 317 317 316 315 310 312 311 312 312 312 312 312 312 311 311 311 311 310 308 307 308 309 309 308 307 308 303 302 303 303 302 306 300 298 301
313 313 313 314 313 313 313 313 314 316 316 317 317 317 317 316 315 311 312 312 312 312 312 313 312 311 310 311 311 311 311 309 307 309 309 308 308 303 302 304 305 301 305 305 304 297 297
312 312 313 313 312 312 312 312 312 312 315 317 316 316 316 316 314 315 314 312 312 313 311 313 312 312 312 309 311 310 311 311 309 308 308 309 306 299 295 302 307 306 304 302 302 299 296
311 312 312 311 311 311 311 311 310 309 310 312 316 315 316 316 314 313 314 313 311 313 313 310 309 308 310 310 310 310 311 311 310 309 303 303 299 299 297 296 298 300 300 301 300 296 297
310 310 309 310 310 309 310 309 308 308 308 308 310 314 314 316 314 312 313 312 313 311 309 309 309 309 309 309 310 310 311 311 308 303 301 304 301 297 296 297 298 299 301 300 300 298 296
307 307 308 308 308 309 308 307 307 307 307 308 309 313 313 314 314 312 312 312 311 312 312 310 309 309 308 308 308 309 309 307 304 302 299 305 300 297 298 298 300 302 301 300 298 296 296
306 306 307 307 307 307 306 306 307 307 307 308 310 312 312 314 314 312 311 311 311 314 308 310 309 308 309 308 307 308 308 307 303 305 299 300 298 298 300 300 297 303 296 296 297 297 303
305 305 306 305 305 306 306 306 307 308 308 308 308 312 311 314 314 312 309 310 311 319 311 308 308 309 309 309 307 309 307 308 305 304 304 305 299 300 303 300 296 302 295 296 295 291 292
304 304 304 304 305 305 306 307 308 308 309 308 307 310 311 313 314 312 308 311 319 310 306 311 307 305 308 306 307 308 307 308 304 305 300 298 295 296 296 295 295 295 298 295 295 294 301
303 303 304 304 305 305 307 308 308 309 309 308 307 309 310 312 314 313 312 316 311 307 307 310 307 304 305 304 305 302 300 296 302 308 308 305 299 295 294 300 296 296 299 305 309 304 308
302 303 303 304 304 305 306 307 308 308 309 310 307 309 309 311 314 316 316 307 309 308 311 303 304 305 308 303 304 303 303 301 296 301 300 305 311 299 293 294 295 297 295 302 309 307 304
302 303 303 304 304 305 306 307 308 308 308 309 309 308 309 309 312 314 316 304 304 309 303 304 305 307 307 307 304 305 301 296 294 292 307 303 310 293 292 292 294 299 297 295 291 287 294
302 303 303 304 304 305 306 306 307 307 307 308 309 309 310 309 312 311 306 307 307 300 301 302 308 307 308 306 307 305 306 295 295 292 294 300 304 299 293 293 292 294 292 299 293 302 306
302 303 303 304 305 306 307 306 306 307 307 308 309 310 310 310 311 309 303 302 303 299 301 303 306 306 303 304 304 305 304 301 297 293 294 289 297 304 296 297 295 292 290 290 291 294 300
303 303 304 305 306 307 307 307 307 307 307 308 309 305 311 311 307 297 300 302 301 299 300 300 301 299 302 303 304 305 306 303 298 295 295 292 293 298 306 285 282 287 291 290 307 308 299
304 304 305 306 307 308 309 309 308 307 308 309 311 309 312 311 300 299 300 301 301 300 301 300 302 301 299 303 305 304 305 297 296 295 293 293 299 308 310 295 289 290 286 284 296 300 306
306 306 306 306 308 310 310 309 309 309 309 310 311 306 312 311 305 299 305 306 305 300 300 300 300 299 300 302 299 302 304 296 295 295 298 299 300 310 316 313 300 301 295 291 301 306 304
310 309 307 309 310 312 311 312 312 311 311 311 313 307 308 302 305 305 306 305 307 307 300 299 300 299 299 303 304 301 300 297 294 295 298 297 303 299 301 302 303 306 306 303 298 305 308
311 311 311 311 312 312 311 312 313 312 311 313 313 313 309 308 306 306 304 308 306 306 300 302 301 305 298 301 308 310 305 302 305 294 295 293 302 298 299 300 300 301 301 298 300 297 298
310 311 311 311 311 311 312 313 313 313 311 313 313 313 312 308 304 302 305 308 306 304 308 307 304 306 301 302 306 306 304 304 303 297 296 295 297 298 310 298 299 304 298 300 287 280 290
311 311 312 311 311 312 312 312 312 312 312 312 312 312 311 305 303 305 309 309 308 308 305 310 308 304 305 304 302 303 302 299 298 300 298 296 296 299 303 302 307 300 284 288 292 287 287
310 311 312 311 311 312 312 312 313 312 312 310 311 312 313 307 309 307 308 308 310 311 309 310 309 306 303 301 304 307 308 303 294 289 295 297 298 302 304 302 301 301 293 290 293 295 288
311 310 312 311 312 312 312 310 309 308 308 306 305 305 310 311 311 311 310 310 309 309 308 306 304 303 300 300 305 310 313 310 305 292 287 292 294 301 296 301 304 298 296 294 290 295 293
311 311 310 310 307 304 300 296 295 295 295 294 294 295 300 305 308 308 309 308 310 307 305 304 303 301 299 301 305 308 310 306 305 301 287 286 291 297 298 300 297 295 294 293 297 298 296
304 300 296 295 295 294 294 294 294 294 294 294 294 293 294 300 295 296 299 304 306 306 305 302 302 295 295 301 303 298 300 297 298 293 289 292 292 291 294 296 295 293 293 297 300 301 301
297 295 294 294 294 294 294 294 294 294 294 294 294 294 295 296 295 295 295 295 297 299 302 303 304 301 299 293 296 297 303 297 294 302 290 300 297 294 294 295 295 295 298 299 299 300 298
Wind_Speed
10 11 12 12 11 12 13 13 13 12 10 9 8 6 5 6 5 4 6 4 4 5 3 6 19 13 3 8 10 16 13 8 11 9 4 1 4 4 5 4 3 4 2 4 4 3 1
10 11 11 11 11 12 12 12 12 12 12 11 9 9 9 6 4 2 9 8 4 4 1 2 3 18 12 7 14 15 11 7 9 14 14 9 9 10 10 5 4 4 6 4 3 2 2
9 10 10 11 12 12 13 13 12 12 13 13 11 9 9 7 3 6 6 5 4 5 3 2 3 3 18 14 16 14 9 8 7 11 14 15 8 2 4 4 6 6 3 2 5 8 1
8 9 9 10 11 12 13 13 13 12 11 13 12 10 6 7 2 4 5 5 3 7 4 5 3 2 4 13 20 9 9 7 8 9 8 11 7 12 7 8 4 4 4 4 1 9 3
7 7 8 9 10 11 12 13 13 12 11 12 13 11 6 6 6 5 2 7 5 4 2 9 5 2 3 8 22 17 10 7 2 7 10 8 5 8 5 3 4 7 1 3 7 5 4
6 6 7 8 9 10 11 12 12 13 12 11 14 13 9 6 9 5 6 5 9 6 2 2 6 2 10 9 15 21 6 9 5 1 3 6 7 5 5 6 1 3 4 4 5 5 4
5 5 6 7 8 9 10 11 12 13 13 12 12 14 12 7 10 5 4 4 3 1 14 12 7 4 9 9 8 21 11 4 6 10 5 8 9 4 3 3 2 1 2 4 5 2 5
4 5 5 6 8 9 10 11 13 14 14 13 12 13 12 7 10 5 1 2 1 8 10 10 7 8 9 11 5 24 11 4 9 5 7 6 3 1 2 1 2 3 3 5 6 1 2
4 4 5 6 7 8 10 12 13 14 14 14 12 13 12 8 7 7 4 5 8 4 4 5 7 7 8 7 7 19 17 5 7 6 7 6 0 2 0 2 6 1 2 2 5 9 1
3 3 5 6 7 9 11 12 14 14 14 14 12 14 12 9 3 4 3 4 2 1 4 5 5 7 8 3 4 15 15 5 7 3 3 5 2 1 0 2 1 4 1 1 5 5 3
3 3 5 6 8 9 11 13 14 15 14 13 12 12 13 8 5 3 1 1 1 2 3 3 4 5 6 6 6 11 13 6 4 3 1 2 4 4 3 2 1 5 2 3 1 3 3
2 3 4 6 8 10 12 13 14 15 15 12 12 11 13 8 7 4 3 2 1 6 4 2 3 7 4 8 6 11 6 7 5 2 5 2 1 3 2 3 2 4 2 1 3 2 3
1 2 4 6 8 9 11 14 15 16 15 13 10 9 13 10 6 4 2 1 5 5 2 3 3 5 1 6 6 9 6 8 3 5 7 3 2 1 4 3 1 6 5 4 6 4 4
1 2 4 6 8 10 11 14 16 16 16 14 10 6 12 10 7 4 1 5 2 2 2 2 2 3 3 6 4 7 2 3 2 2 3 3 6 4 5 3 3 4 4 4 4 3 5
1 3 5 6 8 10 12 13 16 17 16 14 10 6 8 13 8 4 0 4 4 2 1 4 2 3 3 1 0 4 3 3 3 1 4 3 5 1 3 2 2 0 2 2 5 1 3
3 4 6 7 9 11 13 14 16 17 17 14 10 6 6 14 8 4 4 3 1 1 0 0 1 2 2 4 4 5 1 3 2 2 1 2 4 1 2 2 4 3 2 3 3 2 5
4 5 6 7 10 12 14 16 17 17 17 14 9 4 8 14 7 2 3 3 1 0 1 3 1 1 1 2 1 2 2 2 3 4 3 3 3 2 1 4 5 2 2 4 3 3 4
4 5 6 7 9 11 14 16 18 18 17 14 5 3 9 11 4 4 2 1 2 2 1 1 3 3 2 1 2 3 4 5 6 8 4 3 5 3 7 1 1 2 5 4 3 3 2
3 5 7 7 8 10 14 17 18 18 18 17 9 4 7 8 3 2 1 0 1 2 1 1 1 2 3 3 2 3 3 1 8 6 5 5 1 4 4 3 3 3 4 3 1 2 9
4 6 7 8 8 11 14 16 17 16 16 14 6 3 6 9 7 5 1 0 1 2 1 2 1 2 2 3 5 3 3 3 8 6 5 7 3 9 13 10 4 3 6 7 5 4 7
7 8 9 9 8 10 12 14 15 16 15 11 7 3 3 3 5 3 2 1 1 2 3 4 2 6 6 2 2 5 4 2 5 6 5 3 6 6 14 14 10 14 15 12 14 18 13
8 10 11 10 8 9 12 12 13 17 15 10 5 4 4 3 4 3 2 2 3 2 4 3 4 4 7 6 9 9 6 5 6 3 6 2 4 1 5 15 15 14 16 20 22 16 18
7 7 8 9 9 9 9 10 12 13 16 8 9 8 4 3 2 2 2 2 2 1 6 9 10 3 4 14 23 23 17 13 8 9 9 6 4 2 8 2 5 10 13 14 2 3 6
7 9 11 11 12 12 12 11 12 12 10 10 7 5 4 4 1 4 3 5 5 9 7 14 10 6 9 12 14 14 17 17 11 11 16 6 3 2 5 3 6 6 3 5 8 7 14
11 13 13 15 16 17 18 16 16 16 14 10 9 6 5 3 11 7 16 12 17 19 9 14 15 13 10 5 3 5 3 2 1 5 1 2 3 3 3 3 9 7 2 5 6 6 8
11 13 15 17 18 19 19 18 19 17 16 14 12 10 6 4 6 12 5 6 4 5 5 5 12 9 4 2 1 3 6 4 3 2 7 3 1 4 2 4 6 5 1 5 5 4 2
16 17 18 18 17 16 17 17 16 15 14 12 11 9 6 5 16 14 8 3 4 3 3 4 3 1 5 2 4 5 6 3 4 5 4 2 1 7 9 5 9 8 5 4 4 5 4
12 10 10 11 13 14 14 15 15 15 14 12 11 9 7 6 21 24 22 16 14 13 4 4 4 3 1 3 3 3 3 4 1 4 7 8 8 5 3 4 10 10 6 5 2 4 14
11 11 11 12 13 14 14 14 14 14 14 13 10 10 10 11 14 26 29 25 22 20 20 10 11 5 11 2 2 2 3 2 4 5 3 3 7 5 10 8 4 11 10 12 16 16 10
Wind_Direction
80 76 70 66 62 57 54 52 49 46 41 36 32 20 -0 357 359 39 54 45 343 301 287 22 41 33 35 48 10 360 360 14 19 20 30 51 62 97 94 92 72 74 130 85 109 92 100
82 77 72 67 60 54 49 46 43 38 33 28 21 20 16 11 28 22 331 312 317 4 316 325 348 39 46 60 6 8 18 28 35 47 53 70 78 97 97 68 66 102 104 105 69 31 325
82 78 71 64 57 50 44 39 33 28 25 20 14 9 14 12 14 -0 12 46 78 39 24 345 12 29 41 40 21 11 22 39 46 50 56 60 60 54 86 83 98 122 68 130 28 335 240
81 72 65 59 52 46 41 35 30 23 18 15 10 6 3 8 1 31 44 57 67 35 52 34 27 24 78 23 21 22 25 33 39 39 41 47 54 64 56 107 49 51 57 11 40 6 334
83 68 58 50 45 40 36 31 27 21 16 13 10 7 355 355 342 265 9 24 348 250 27 31 29 53 36 1 9 16 25 28 35 55 42 37 60 64 45 50 26 14 358 344 322 46 314
87 68 55 44 37 33 29 25 22 19 15 8 10 8 1 350 340 299 247 251 46 33 280 347 21 80 19 343 9 8 7 25 30 2 32 43 51 64 28 38 203 309 337 317 253 334 347
83 64 52 41 31 28 22 18 15 13 10 6 1 5 6 348 351 327 240 224 267 42 67 75 45 51 360 3 22 12 22 22 30 53 36 24 60 45 333 359 349 286 261 266 260 26 332
83 60 44 36 27 19 16 13 9 7 5 2 357 1 0 349 2 2 213 209 191 138 82 58 48 35 12 7 3 17 26 48 46 44 337 29 64 300 279 276 269 222 285 278 282 184 355
76 53 34 28 21 13 10 9 5 3 2 0 360 1 0 353 11 30 75 125 129 121 76 32 32 21 13 7 34 6 17 34 63 52 19 99 164 296 171 33 5 253 213 302 254 322 226
69 37 23 19 14 9 7 6 3 1 360 2 3 7 6 5 12 17 83 98 85 127 71 327 356 8 357 11 40 11 13 35 39 101 78 89 322 8 58 74 19 305 91 302 287 15 279
70 35 17 13 10 7 5 3 3 1 359 360 1 5 10 15 8 16 74 110 54 99 33 313 337 350 3 61 329 5 17 40 69 61 98 312 8 8 33 4 33 268 330 287 73 82 31
81 34 9 7 7 5 4 2 3 4 1 357 356 359 7 10 20 37 67 92 45 44 261 355 328 350 16 23 14 346 24 53 69 96 44 86 49 47 315 301 240 315 306 106 59 91 14
81 26 2 1 2 2 1 2 1 3 2 357 351 358 4 9 14 22 42 27 38 123 357 335 340 21 54 346 1 26 26 12 58 40 8 348 53 53 18 337 187 27 32 337 351 4 231
24 352 353 357 356 355 358 359 358 359 359 355 347 343 6 7 10 11 7 54 120 170 235 15 352 325 48 4 25 6 55 37 81 49 76 61 329 24 359 115 195 43 125 143 263 288 292
317 336 347 352 351 350 353 356 356 355 354 351 344 329 349 360 356 355 74 57 225 166 24 357 312 32 357 27 313 39 55 188 231 111 127 62 277 141 55 120 105 148 47 181 100 81 31
302 328 342 348 350 350 350 352 354 354 351 348 340 326 345 354 349 351 75 205 149 33 58 10 71 50 313 311 354 28 337 227 209 178 156 204 316 101 113 106 49 114 161 38 11 343 298
289 319 342 353 351 353 353 353 352 354 352 349 338 317 344 348 344 40 127 207 191 122 14 27 163 276 225 299 306 292 243 230 196 147 92 129 111 266 132 188 185 34 7 40 118 125 200
288 315 338 359 354 352 353 356 355 355 357 355 354 358 345 348 8 45 99 176 150 172 140 62 94 133 205 180 262 263 243 217 175 158 163 209 152 263 246 312 205 122 202 154 134 229 220
311 332 340 355 350 355 357 356 357 356 359 360 345 334 356 357 90 19 266 218 200 152 225 158 207 205 198 232 334 221 247 200 172 162 174 192 238 309 287 353 8 191 198 179 83 48 211
340 338 341 353 355 359 360 360 2 2 1 2 356 10 22 51 69 113 104 185 252 210 210 196 187 159 168 239 215 276 255 199 200 211 199 176 199 212 257 254 140 206 196 207 199 211 262
3 348 352 356 4 0 2 4 8 8 5 11 23 60 26 327 10 43 23 306 249 254 223 209 211 218 177 213 249 230 232 198 202 209 175 202 235 213 252 276 275 261 262 231 210 241 248
353 357 358 359 11 5 360 3 6 11 16 34 41 9 8 357 329 343 351 236 221 274 159 231 212 182 183 191 207 254 210 202 216 145 165 115 270 277 255 247 252 265 257 246 245 249 264
337 344 346 349 351 352 354 7 8 6 14 40 35 13 359 329 14 66 237 277 252 260 247 242 220 180 205 238 264 270 263 257 234 156 185 181 219 190 281 19 298 271 240 236 177 228 172
324 321 329 334 338 345 345 342 338 343 353 357 343 343 320 276 169 201 241 242 245 253 244 280 266 198 275 284 290 276 260 256 231 205 173 169 176 208 291 325 255 247 208 165 179 214 214
305 311 308 317 326 322 324 321 323 326 322 316 303 286 271 248 250 257 253 257 275 272 251 261 263 261 274 308 313 296 257 277 94 39 180 199 149 255 259 221 305 287 236 145 162 270 210
289 292 307 307 313 314 314 320 320 321 318 312 301 283 247 294 241 271 275 274 268 268 270 245 272 282 255 156 211 241 237 220 211 181 22 77 44 208 134 247 264 245 143 168 133 289 109
289 296 299 302 310 313 315 320 325 327 327 326 315 293 258 269 266 274 253 268 273 288 266 284 310 283 203 191 228 235 252 192 236 192 175 98 188 221 235 265 281 254 187 158 96 246 185
303 319 333 332 331 326 326 330 328 326 326 326 317 302 277 245 277 274 269 255 258 262 242 248 323 239 91 207 237 250 252 247 347 154 181 171 167 205 179 217 274 176 129 187 234 292 290
342 338 335 333 330 327 326 324 324 325 324 325 319 306 281 256 269 283 275 270 268 266 258 230 231 191 214 131 219 277 247 210 210 270 51 251 198 196 191 216 244 195 235 267 288 286 265